Location: ??? ????
(30.7264°N, 60.4970°E)
Time: 08:38:02
(UTC+00:00)

Daily predictions for brighter satellites

Satellite Brightness Start Highest point End
(mag) Time Altitude Azimuth Time Altitude Azimuth Time Altitude Azimuth
Cosmos 44 Rocket 3.6 15:16:11 10° NNW 15:21:06 75° WSW 15:26:07 10° SSE
Cosmos 2034 Rocket 4.2 15:15:17 10° N 15:21:15 51° E 15:27:11 10° SSE
Cosmos 1624 Rocket 4.1 15:16:00 10° SSW 15:21:18 86° ESE 15:26:38 10° NNE
Cosmos 2278 Rocket 2.3 15:16:01 10° S 15:21:33 61° ESE 15:27:09 10° NNE
Cosmos 1513 Rocket 4.5 15:15:38 10° N 15:21:46 79° E 15:27:58 10° S
STARLINK-1120 3.9 15:18:52 10° NW 15:22:59 69° SW 15:27:05 10° SSE
EXPRESS MD2 2.0 15:22:03 10° SW 15:24:11 75° SE 15:27:05 10° NE
ASTRO E2 2.7 15:21:56 10° WSW 15:25:51 65° SSE 15:29:46 10° E
STARLINK-1131 4.0 15:23:52 10° NW 15:27:57 61° SW 15:32:01 10° SSE
Cosmos 1666 4.0 15:25:28 10° NNW 15:29:06 43° W 15:32:42 10° SSW
Orbus 7S 4.4 15:19:37 10° W 15:30:11 61° SSW 15:33:39 10° ESE
STARLINK-1190 4.2 15:28:54 10° NW 15:32:56 53° SW 15:36:57 10° SSE
Cosmos 1908 Rocket 3.6 15:31:39 10° N 15:36:05 64° E 15:40:30 10° SSE
STARLINK-1129 4.4 15:33:53 10° NW 15:37:52 47° SW 15:41:49 10° SSE
Resurs 01 Rocket 3.5 15:35:47 10° ESE 15:38:19 15° ENE 15:40:51 10° NNE
Cosmos 1464 Rocket 4.3 15:33:13 10° N 15:39:35 75° W 15:45:56 10° S
Ariane Rocket 3.0 15:34:35 10° SSE 15:39:38 79° ENE 15:44:43 10° N
Cosmos 1515 3.7 15:38:20 10° S 15:42:06 63° E 15:45:52 10° NNE
CREW DRAGON DEMO-1 DEB 3.0 15:39:41 10° NW 15:42:46 68° SW 15:45:21 13° SE
Cosmos 371 Rocket 3.7 15:39:12 10° S 15:43:43 42° ESE 15:48:17 10° NNE
SEDSat Delta rocket 4.2 15:37:56 10° W 15:44:31 63° SSW 15:50:25 14° ESE
H-2A R/B 2.3 15:43:10 10° S 15:48:08 69° WSW 15:53:16 10° NNW
GPS 2-04 Rocket1 3.7 15:45:26 10° WNW 15:48:41 38° N 15:52:03 10° ENE
Milstar 3 Cent rocket 4.1 15:43:57 10° SSW 15:49:54 28° SE 16:00:07 10° E
NOSS 8 (E) 4.3 15:47:06 10° SSW 15:51:02 74° ESE 15:54:13 10° NNE
NOSS 2-2 (D) 4.4 15:50:19 10° SSE 15:53:05 20° ESE 15:55:45 10° ENE
MOS 1 4.3 15:48:11 10° SSE 15:53:52 82° ENE 15:59:34 10° N
SL-4 R/B 3.7 15:51:02 10° SSE 15:54:06 18° ESE 15:57:16 10° E
Aureole 1 Rocket 3.9 15:49:31 10° N 15:54:36 62° ENE 16:00:44 12° SSE
STARLINK-1075 4.4 15:51:16 10° NNW 15:55:10 39° NE 15:57:56 17° ESE
SL-08 RB Rocket 3.7 15:50:36 10° SSE 15:55:11 79° ENE 15:59:46 10° N
MetOp-A 4.4 15:50:42 11° SSE 15:55:36 52° ENE 16:00:47 10° N
Okean 1-7 3.7 15:52:02 10° SSW 15:56:14 56° W 16:00:25 10° N
Cosmos 1634 Rocket 4.5 15:50:48 10° N 15:56:45 42° E 16:01:39 15° SE
STARLINK-1093 4.3 15:56:09 10° NNW 16:00:07 43° NE 16:02:41 19° ESE
Cosmos 724 4.3 15:55:16 10° NNW 16:01:14 83° ENE 16:06:14 16° SSE
Resurs 1-3 4.1 16:00:00 18° SE 16:02:56 43° ENE 16:07:05 10° N
Cosmos 676 Rocket 4.5 15:59:16 10° N 16:04:16 44° ENE 16:07:34 20° SE
STARLINK-1074 4.1 16:01:07 10° NNW 16:05:08 48° NE 16:07:29 22° ESE
CZ-2C R/B 3.8 16:01:13 10° N 16:05:44 81° WNW 16:10:19 10° SSW
Cosmos 909 Rocket 4.2 16:00:02 10° NNW 16:07:16 78° ENE 16:12:07 18° SSE
SWIFT 4.2 16:06:04 10° SSW 16:08:13 14° S 16:08:13 14° S
NOSS 2-2 (E) 3.3 16:06:51 10° S 16:10:21 45° ESE 16:13:48 10° NE
ATLAS 3B CENTAUR R/B 4.0 15:55:44 10° WSW 16:14:54 68° S 16:22:32 13° E
STARLINK-1088 3.8 16:11:00 10° NW 16:15:06 62° NE 16:17:03 29° ESE
IUS-15 SRM-1 3.2 16:12:11 10° W 16:15:39 33° SSW 16:15:55 32° S
Cosmos 304 Rocket 4.2 16:12:32 18° SSE 16:15:39 39° E 16:20:06 10° NNE
VEP-3 3.7 16:11:51 10° SW 16:18:09 25° SSE 16:19:47 22° SE
ARGOS 4.2 16:13:15 10° S 16:18:20 44° W 16:23:27 10° NNW
Meteor 2-4 Rocket 3.6 16:13:24 10° S 16:18:47 86° W 16:24:08 10° N
Cosmos 1437 Rocket 3.4 16:18:14 31° ESE 16:18:55 34° E 16:22:21 10° NNE
STARLINK-1115 3.6 16:15:56 10° NW 16:20:04 69° NE 16:21:50 32° ESE
Meteor 1-4 Rocket 4.3 16:18:20 10° SW 16:21:24 31° W 16:24:31 10° NNW
COSMOS 2406 3.2 16:16:10 10° NNW 16:21:57 89° ENE 16:25:47 22° SSE
Lacrosse 5 3.2 16:17:47 10° NNW 16:22:05 27° NE 16:24:31 19° E
Aureole 2 Rocket 2.5 16:23:59 43° E 16:23:59 43° E 16:26:50 10° NNE
CZ-2C R/B 3.3 16:19:02 10° N 16:24:33 60° WNW 16:30:01 10° SSW
STARLINK-1076 3.5 16:20:54 10° NW 16:25:02 78° NE 16:26:36 37° SE
Cosmos 2297 3.7 16:20:12 10° S 16:25:43 57° ESE 16:31:17 10° NNE
Cosmos 1943 Rocket 3.4 16:27:31 22° E 16:27:31 22° E 16:31:15 10° NE
Cosmos 1674 Rocket 4.1 16:28:02 34° ESE 16:28:53 38° E 16:32:56 10° NNE
USA 186 4.4 16:29:16 10° WSW 16:29:58 11° W 16:30:41 10° WNW
STARLINK-1092 3.5 16:25:53 10° NW 16:30:02 88° NE 16:31:24 41° SE
Cosmos 1378 Rocket 4.4 16:31:47 30° E 16:31:55 30° E 16:35:47 10° NNE
Sakura Rocket 4.2 16:25:55 10° W 16:32:14 77° S 16:39:05 18° E
Cosmos 1833 Rocket 2.7 16:28:33 10° NNW 16:34:09 69° ENE 16:36:43 33° SE
OAO 1 4.5 16:28:56 10° WSW 16:34:27 90° NNW 16:39:35 12° ENE
NOSS 2-2 (C) 2.8 16:31:13 10° SSW 16:34:52 74° ESE 16:38:27 10° NNE
STARLINK-1080 3.5 16:30:51 10° NW 16:34:59 82° SW 16:36:10 45° SSE
Cosmos 1975 3.7 16:31:16 10° NNW 16:35:07 47° W 16:37:52 17° SSW
Cosmos 1452 Rocket 4.2 16:30:32 10° SSW 16:35:41 56° WNW 16:40:53 10° N
ATLAS 2AS CENTAUR R/B 4.3 16:38:35 19° E 16:38:35 19° E 16:42:52 10° ENE
ISS -1.6 16:35:18 10° N 16:37:38 17° NE 16:38:14 17° NE
Cosmos 332 Rocket 4.2 16:34:30 10° SSW 16:39:22 65° WNW 16:44:15 10° N
STARLINK-1090 3.6 16:35:50 10° NW 16:39:58 73° SW 16:40:58 49° SSE
Cosmos 2082 Rocket 2.7 16:35:03 10° N 16:40:29 45° ENE 16:42:18 34° ESE
Cosmos 2369 Rocket 3.7 16:43:57 19° E 16:43:57 19° E 16:46:36 10° NE
Hubble Space Telescope 2.5 16:40:55 10° WSW 16:43:50 20° SSW 16:43:50 20° SSW
STARLINK-1089 3.7 16:40:51 10° NW 16:44:57 64° SW 16:45:45 50° S
H-2A R/B 3.3 16:46:26 10° WSW 16:49:32 27° S 16:50:05 26° S
STARLINK-1107 3.9 16:45:50 10° NW 16:49:53 56° SW 16:50:31 49° SSW
Meteor 1-13 Rocket 4.5 16:46:06 11° SSW 16:51:30 67° W 16:57:10 10° N
STARLINK-1066 4.0 16:50:51 10° NW 16:54:50 49° SW 16:55:18 47° SSW
SPOT 5 4.4 16:55:51 22° ENE 16:56:08 23° ENE 17:00:10 10° NNE
ERS-1 Rocket 4.1 16:59:41 28° ENE 16:59:47 28° ENE 17:04:00 10° NNE
STARLINK-1081 4.2 16:55:53 10° WNW 16:59:49 43° SW 17:00:06 43° SW
Cosmos 1066 Rocket 4.0 16:58:44 46° SSE 17:00:16 70° E 17:05:36 10° NNE
Nadezhda 4 Rocket 3.9 16:59:26 43° SSE 17:01:15 61° E 17:07:17 10° NNE
STARLINK-1070 4.5 17:00:55 10° WNW 17:04:46 38° SW 17:04:52 38° SW
ASTRO E2 2.7 17:02:20 10° W 17:06:01 74° NW 17:06:01 74° NW
SAR-Lupe-2 3.8 17:03:06 10° N 17:06:30 66° NW 17:06:30 66° NW
MetOp-B 4.1 17:09:19 53° S 17:10:38 85° W 17:16:00 10° NNW
Resurs 01 Rocket 2.8 17:13:07 30° SW 17:14:26 37° W 17:18:34 10° NNW
Cosmos 2279 Rocket 4.2 17:12:22 10° NNW 17:18:30 64° W 17:21:00 36° SSW
Cosmos 1741 Rocket 3.8 17:13:31 10° NNW 17:18:45 80° ENE 17:19:05 75° ESE
SL-4 R/B 3.9 17:17:55 10° NW 17:18:58 17° WNW 17:18:58 17° WNW
STARLINK-1094 4.5 17:18:06 10° NNW 17:21:30 43° NNE 17:21:30 43° NNE
Spot 2 Rocket 3.4 17:23:41 70° SSW 17:24:08 76° WSW 17:29:11 10° NNW
SPOT 1/Viking Rocket 3.4 17:24:01 73° E 17:24:08 74° ENE 17:29:17 10° N
Okean 1 Rocket 3.6 17:20:00 10° N 17:23:30 50° NNE 17:23:30 50° NNE
Terra 3.2 17:26:36 27° NE 17:26:36 27° NE 17:29:45 10° NNE
Orbus 7S 4.2 17:23:43 10° W 17:44:16 - E 17:27:02 61° SSW
Cosmos 1850 Rocket 3.9 17:23:05 10° NNW 17:28:26 77° WSW 17:28:47 73° SW
GPS 2-04 Rocket1 4.1 17:25:07 10° WNW 17:27:31 33° NNW 17:27:31 33° NNW
SL-4 R/B 2.9 17:28:52 10° WSW 17:33:26 55° NW 17:38:11 10° NE
Cosmos 1092 Rocket 3.8 17:46:17 82° S 17:46:35 90° WSW 17:52:45 10° N
Cosmos 1302 Rocket 4.2 17:49:55 69° NW 17:49:55 69° NW 17:54:58 10° N
ATLAS 5 CENTAUR R/B 4.0 17:39:21 10° SSW 17:56:38 - NE 17:49:52 45° SSW
NOSS 3-4 (A) 4.0 18:01:50 44° NE 18:01:50 44° NE 18:05:59 10° NE
NOSS 3-4 (C) 4.0 18:01:59 43° NE 18:01:59 43° NE 18:06:05 10° NE
Cosmos 1627 Rocket 4.4 18:00:44 87° N 18:00:44 87° N 18:07:01 10° N
Cosmos 2195 Rocket 4.4 18:01:41 78° WSW 18:01:50 79° W 18:08:08 10° N
Lacrosse 5 3.3 18:00:27 10° NW 18:03:43 31° W 18:03:43 31° W
Cosmos 1428 Rocket 4.5 18:07:36 78° NNE 18:07:36 78° NNE 18:13:26 10° N
Cosmos 1943 Rocket 3.4 18:08:56 31° W 18:10:30 37° WNW 18:15:38 10° N
BREEZE-M DEB (TANK) 4.1 18:11:48 10° NW 18:19:13 43° NNE 18:19:13 43° NNE
Cosmos 2082 Rocket 4.1 18:20:17 10° WNW 18:24:06 19° W 18:24:10 19° W
Cosmos 2369 Rocket 3.2 18:25:39 39° WNW 18:26:06 39° WNW 18:31:23 10° N
ATLAS 2AS CENTAUR R/B 3.1 18:25:53 55° WSW 18:27:43 72° WNW 18:35:44 10° NNE
SeaSat 1 4.1 18:22:53 10° NNE 18:25:03 26° NNE 18:25:03 26° NNE
Milstar 3 Cent rocket 4.2 18:18:34 10° WSW 18:28:34 74° SSE 18:51:31 10° E
ATLAS 3B CENTAUR R/B 3.4 18:27:48 10° W 18:36:45 50° WSW 18:36:45 50° WSW
NOSS 3-2 (A) 4.0 18:32:17 10° NNW 18:40:17 79° ENE 18:40:25 79° ENE
ATLAS CENTAUR R/B 4.2 18:47:20 15° NNE 18:47:20 15° NNE 18:48:06 10° NNE
USA 238 DEB 3.9 18:44:27 10° NNW 18:51:00 73° NNW 18:51:00 73° NNW
USA 238 3.9 18:44:33 10° NNW 18:51:07 74° NNW 18:51:07 74° NNW
Terra 4.3 19:05:29 16° WNW 19:05:29 16° WNW 19:06:56 10° NW
COSMOS 2455 4.1 19:26:39 36° NW 19:26:39 36° NW 19:31:15 10° N
CENTAUR R/B 3.4 19:36:39 10° NNW 19:43:58 66° WNW 19:43:58 66° WNW
ATLAS 3B R/B 3.3 19:41:03 10° NNW 19:46:44 51° NNE 19:46:44 51° NNE
Cosmos 2227 Rocket 4.1 20:15:53 10° NNE 20:19:57 22° ENE 20:19:57 22° ENE
CZ-4C R/B 3.6 20:51:10 31° NNE 20:51:10 31° NNE 20:54:07 10° NNE
Cosmos 1980 Rocket 3.5 21:03:41 34° ENE 21:03:41 34° ENE 21:07:12 10° NNE
USA 215 3.8 21:05:39 50° NW 21:05:39 50° NW 21:10:17 10° NW
Resurs 1-4 Rocket 3.5 21:01:38 10° NNE 21:05:00 34° NE 21:05:00 34° NE
SJ 16-02 3.7 21:08:46 10° N 21:10:14 20° N 21:10:14 20° N
CZ-2D R/B 3.1 21:15:00 10° NNE 21:18:32 41° NE 21:18:32 41° NE
Cosmos 2297 Rocket 3.3 21:21:55 10° NNW 21:25:14 37° NNW 21:25:14 37° NNW
Cosmos 540 Rocket 4.5 21:35:07 42° N 21:35:07 42° N 21:38:33 10° NNE
SL-16 R/B 2.8 21:34:13 60° E 21:34:30 61° ENE 21:40:34 10° N
Lacrosse 4 Rocket 3.5 21:33:03 10° N 21:35:25 25° NNE 21:35:25 25° NNE
Cosmos 2322 Rocket 4.1 21:36:55 19° ESE 21:37:20 19° E 21:41:07 10° ENE
Cosmos 2082 4.2 21:31:53 10° N 21:36:59 57° NE 21:36:59 57° NE
Cosmos 2278 4.3 21:39:38 51° NNW 21:39:38 51° NNW 21:44:04 10° NNE
Cosmos 1937 Rocket 4.3 21:33:31 10° N 21:37:32 50° NNE 21:37:32 50° NNE
Cosmos 2181 Rocket 4.1 21:34:52 10° N 21:41:20 76° E 21:41:21 76° E
CZ-4B R/B 3.9 21:44:52 10° NNE 21:49:11 61° NNE 21:49:11 61° NNE
Cosmos 1697 Rocket 4.0 21:51:04 29° NW 21:51:04 29° NW 21:55:12 10° N
NPP 4.0 21:48:59 10° N 21:53:27 59° NNW 21:53:27 59° NNW
BREEZE-M DEB (TANK) 4.4 21:57:53 10° NW 22:02:39 79° SW 22:19:42 10° SE
Cosmos 2227 Rocket 3.6 21:59:03 10° NW 22:01:43 26° NW 22:01:43 26° NW
SL-16 R/B 2.7 22:08:16 46° ESE 22:08:48 48° ESE 22:14:13 10° NNE
Cosmos 1241 Rocket 4.3 22:11:03 70° SSE 22:11:34 74° ESE 22:17:45 10° NNE
Cosmos 2285 Rocket 3.8 22:08:46 10° NNW 22:15:05 71° WSW 22:15:13 70° WSW
IRS-P3 Rocket 4.5 22:11:01 10° NNE 22:16:21 84° ESE 22:16:25 83° SE
IRS-1C 4.3 22:11:50 10° NNE 22:17:08 64° ESE 22:17:39 60° SE
ADEOS II 1.9 22:20:37 10° N 22:25:53 84° WNW 22:26:10 79° SW
FALCON 9 R/B 4.1 22:19:35 14° WNW 22:26:19 89° SSW 22:58:50 10° ESE
STARLINK-1295 4.3 22:27:35 52° ENE 22:27:35 52° ENE 22:30:52 10° NE
STARLINK-1287 4.0 22:32:23 61° ENE 22:32:23 61° ENE 22:35:52 10° NE
Uosat 12 SS-18 rocket 4.1 22:29:43 10° NNW 22:34:07 82° ENE 22:34:53 62° SE
Meteor 2-17 Rocket 4.4 22:36:07 56° SW 22:37:06 63° W 22:43:10 10° N
Cosmos 2360 Rocket 3.4 22:35:46 23° SSE 22:38:18 34° ESE 22:43:18 10° NE
NOSS 2-1 (E) 4.1 22:39:26 38° N 22:39:26 38° N 22:41:47 10° NNE
IDEFIX/ARIANE 42P 3.8 22:34:05 10° NNE 22:38:53 36° E 22:41:42 21° SSE
CBERS-1 4.5 22:34:11 10° N 22:39:01 44° WNW 22:39:04 44° WNW
STARLINK-1278 3.8 22:39:44 67° NNW 22:39:44 67° NNW 22:43:44 10° NE
STARLINK-1244 4.5 22:35:53 10° NNW 22:39:55 49° NE 22:43:55 10° ESE
Cosmos 1825 4.3 22:39:26 18° ESE 22:40:51 22° E 22:43:47 10° NE
ERBS 4.2 22:38:05 10° NNW 22:41:04 29° NE 22:44:03 10° ESE
STARLINK-1280 3.8 22:41:29 66° NNW 22:41:29 66° NNW 22:45:33 10° NE
STARLINK-1302 3.6 22:41:57 75° N 22:41:57 75° N 22:45:50 10° NE
H-2A R/B 4.1 22:40:01 10° SE 22:43:39 27° ENE 22:47:22 10° NNE
Iridium 2 4.4 22:40:17 10° N 22:43:04 46° NNW 22:43:04 46° NNW
STARLINK-1138 4.2 22:40:50 10° NW 22:44:54 56° NE 22:48:57 10° SE
Cosmos 1980 Rocket 3.8 22:45:27 19° WNW 22:46:02 19° WNW 22:49:59 10° NNW
Resurs 1-4 Rocket 3.8 22:42:41 10° NNW 22:46:04 18° WNW 22:46:04 18° WNW
STARLINK-1273 3.6 22:46:42 72° NW 22:46:42 72° NW 22:50:46 10° NE
Cosmos 2341 Rocket 4.3 22:43:28 29° SSE 22:46:54 68° E 22:53:12 10° NNE
IRIDIUM 106 4.2 22:48:20 53° SSW 22:49:35 81° W 22:54:49 10° N
STARLINK-1143 4.0 22:45:46 10° NW 22:49:52 63° NE 22:53:57 10° SE
STARLINK-1288 3.7 22:51:31 63° WNW 22:51:37 64° NW 22:55:44 10° NE
GEOS 3 Rocket 3.7 22:51:53 49° WSW 22:51:53 49° WSW 22:56:45 10° NW
Cosmos 1295 Rocket 4.4 22:50:24 42° SSW 22:52:41 74° W 22:59:01 10° N
STARLINK-1241 3.8 22:50:45 10° NW 22:54:53 71° NE 22:59:00 10° SE
IRS-P3 4.5 22:50:22 10° N 22:55:26 46° WNW 22:56:23 42° WSW
STARLINK-1308 3.8 22:56:20 53° WNW 22:56:39 55° NW 23:00:43 10° NNE
Cosmos 1869 3.0 22:54:54 10° N 22:58:46 78° W 22:58:53 76° WSW
COBE Rocket 4.1 22:55:50 22° SSE 22:59:05 75° ENE 23:04:09 10° N
Cosmos 2058 2.9 22:59:05 58° W 22:59:12 58° W 23:03:22 10° N
CZ-2D R/B 4.1 22:57:24 10° NW 22:59:37 13° WNW 22:59:51 13° WNW
STARLINK-1239 3.6 22:55:42 10° NW 22:59:50 80° NE 23:03:59 10° SE
Elektron 1 3.8 23:02:30 84° NW 23:02:30 84° NW 23:06:23 10° NNE
Cosmos 1076 Rocket 3.6 23:03:42 52° WSW 23:04:11 56° W 23:08:29 10° N
STARLINK-1240 3.5 23:00:40 10° NW 23:04:48 90° NNE 23:08:56 10° SE
CZ-3 R/B 4.2 22:41:17 27° SW 23:05:55 59° SSE 23:17:02 10° E
CZ-2D R/B 3.4 23:01:54 10° N 23:06:09 79° WNW 23:07:19 48° SSW
STARLINK-1304 4.2 23:05:50 40° WNW 23:06:34 45° NW 23:10:32 10° NNE
CZ-2C R/B 3.1 23:03:32 10° NNE 23:07:15 61° E 23:08:36 36° SSE
STARLINK-1216 3.4 23:05:38 10° NW 23:09:46 81° SW 23:13:53 10° SE
STARLINK-1203 3.5 23:05:44 10° NW 23:09:56 80° SW 23:14:06 10° SE
Skynet4D Del rocket 3.8 23:08:18 34° WSW 23:10:42 55° S 23:16:09 10° ESE
Cosmos 1408 2.5 23:11:17 59° SSW 23:11:53 75° W 23:15:34 10° N
STARLINK-1237 3.4 23:10:37 10° NW 23:14:44 71° SW 23:18:51 10° SE
Meteor 1-28 Rocket 3.0 23:14:06 38° S 23:15:27 79° WSW 23:19:13 10° NNW
Cosmos 2263 Rocket 2.1 23:10:22 10° NNW 23:15:58 88° WSW 23:21:31 10° SSE
Shenzhou-11 Module 4.4 23:16:35 11° NNW 23:17:02 11° NNW 23:17:47 10° N
Timation 1 Rocket 4.4 23:12:04 10° NNW 23:17:51 55° WSW 23:23:37 10° S
SL-16 R/B 4.2 23:19:18 15° W 23:19:18 15° W 23:21:52 10° WNW
ARIANE 5 R/B 3.1 23:14:12 10° N 23:18:49 39° WNW 23:20:23 31° WSW
Cosmos 2218 Rocket 4.2 23:13:42 14° S 23:19:11 76° E 23:25:33 10° N
STARLINK-54 3.7 23:18:37 40° S 23:19:29 51° SE 23:22:58 10° NE
STARLINK-1202 3.5 23:15:37 10° NW 23:19:43 63° SW 23:23:47 10° SSE
Cosmos 2322 Rocket 2.7 23:18:45 30° WSW 23:20:56 44° WNW 23:26:17 10° N
STARLINK-24 3.8 23:20:14 36° SSW 23:21:37 58° SE 23:25:33 10° NE
Cosmos 2151 2.9 23:19:23 27° S 23:21:37 87° E 23:25:55 10° N
Cosmos 2150 Rocket 4.5 23:17:36 10° NW 23:22:18 37° W 23:23:45 30° SW
USA 234 3.8 23:16:33 10° NE 23:22:52 50° SE 23:27:43 17° SSW
STARLINK-81 3.9 23:21:40 34° S 23:22:55 50° SE 23:26:35 10° NE
SL-8 Rocket 4.0 23:20:52 19° S 23:25:34 78° W 23:31:53 10° N
STARLINK-77 3.7 23:24:49 34° S 23:26:10 56° SE 23:29:53 10° NE
STARLINK-79 3.6 23:25:46 35° S 23:26:59 56° SE 23:30:31 10° NE
Cosmos 1892 4.0 23:27:17 24° W 23:27:20 24° W 23:30:28 10° NNW
STARLINK-1051 4.3 23:26:50 25° S 23:28:50 45° SE 23:32:47 10° NE
STARLINK-1246 3.7 23:25:40 10° NW 23:29:39 48° SW 23:33:37 10° SSE
Cosmos 2237 4.2 23:28:53 24° SSW 23:32:20 70° WNW 23:38:04 10° NNE
STARLINK-78 3.5 23:31:06 32° SSW 23:32:42 69° SE 23:36:28 10° NE
STARLINK-50 3.5 23:32:04 30° SSW 23:33:53 73° SE 23:37:50 10° NE
STARLINK-57 3.3 23:32:50 32° SSW 23:34:27 78° SE 23:38:14 10° NE
STARLINK-1224 3.9 23:30:41 10° WNW 23:34:36 42° SW 23:38:30 10° SSE
Cosmos 1315 Rocket 3.9 23:32:10 10° NW 23:35:23 25° W 23:35:36 24° W
STARLINK-49 3.4 23:35:43 29° SW 23:37:32 79° SE 23:41:21 10° NE
Cosmos 2221 3.8 23:34:36 10° NW 23:37:57 22° W 23:38:27 21° W
STARLINK-1028 3.9 23:36:25 24° SSW 23:38:46 59° SE 23:42:50 10° NE
USA 229 DEB 4.1 23:31:25 10° NNW 23:38:54 80° ENE 23:46:37 10° SSE
USA 229 4.1 23:31:32 10° NNW 23:39:00 80° ENE 23:46:42 10° SSE
STARLINK-74 3.3 23:37:24 28° SW 23:39:15 82° SE 23:43:02 10° NE
STARLINK-27 3.3 23:37:23 28° SW 23:39:15 82° SE 23:43:04 10° NE
ATLAS CENTAUR R/B 4.4 23:34:25 10° WNW 23:39:25 28° SW 23:49:57 10° S
STARLINK-1225 4.0 23:35:44 10° WNW 23:39:34 37° SW 23:43:23 10° SSE
STARLINK-69 3.2 23:40:11 28° SW 23:41:59 81° NW 23:45:38 10° NE
STARLINK-31 3.3 23:40:36 27° SW 23:42:33 89° NW 23:46:20 10° NE
Cosmos 2084 Rocket 4.0 23:38:24 10° NW 23:42:33 37° WSW 23:46:41 10° S
STARLINK-39 3.3 23:41:01 26° SW 23:43:03 89° NW 23:46:52 10° NE
NOSS 3-1 (C) 4.2 23:35:01 10° NNW 23:43:07 88° WSW 23:52:04 10° SSE
STARLINK-1021 3.8 23:41:12 22° SSW 23:43:43 67° SE 23:47:50 10° NE
STARLINK-1230 4.2 23:40:46 10° WNW 23:44:31 33° SW 23:48:14 10° SSE
COSMOS 2428 3.9 23:41:03 10° S 23:46:17 40° ESE 23:51:33 10° NE
Cosmos 2344 4.4 23:39:23 10° S 23:46:56 47° ESE 23:54:01 10° NE
STARLINK-21 3.4 23:45:11 24° SW 23:47:21 78° NW 23:51:10 10° NE
STARLINK-76 3.2 23:45:34 25° SW 23:47:36 76° NW 23:51:15 10° NE
STARLINK-23 3.2 23:46:19 24° SW 23:48:19 74° NW 23:51:56 10° NE
STARLINK-1019 3.7 23:45:59 21° SW 23:48:41 76° SE 23:52:49 10° NE
STARLINK-45 3.5 23:46:30 23° SW 23:48:41 66° NW 23:52:29 10° NE
STARLINK-70 3.4 23:47:02 23° SW 23:49:13 68° NW 23:52:59 10° NE
STARLINK-1243 4.4 23:45:52 10° WNW 23:49:29 29° SW 23:53:05 10° S
STARLINK-32 3.3 23:48:19 23° SW 23:50:26 70° NW 23:54:04 10° NE
Cosmos 1125 Rocket 4.2 23:46:27 10° NW 23:51:04 33° W 23:55:40 10° SSW
ERS-2 3.2 23:51:22 21° SW 23:52:36 25° W 23:55:39 10° NW
STARLINK-25 3.3 23:50:30 22° SW 23:52:40 65° NW 23:56:17 10° NE
SL-16 R/B 3.8 23:50:09 13° W 23:53:06 19° WNW 23:57:01 10° NNW
PSLV R/B 3.4 23:49:14 10° N 23:53:26 84° W 23:57:36 10° SSW
STARLINK-1012 3.6 23:50:45 19° SW 23:53:39 86° SE 23:57:47 10° NE
STARLINK-44 3.4 23:52:49 20° WSW 23:55:07 61° NW 23:58:43 10° NE
